Location: Quesnel
(52.9830°N, 122.4830°W)
Time: 14:32:02
(UTC-07:00)

ISS - All Passes

Search period start: 17 August 2017 00:00
Search period end: 27 August 2017 00:00
Orbit: 401 x 408 km, 51.6° (Epoch: 18 August)

Date Brightness Start Highest point End Pass type
(mag) Time Alt. Az. Time Alt. Az. Time Alt. Az.
17 Aug - 13:08:46 10° SW 13:11:38 28° SSE 13:14:31 10° E daylight
17 Aug - 14:44:34 10° WSW 14:47:49 65° S 14:51:04 10° E daylight
17 Aug - 16:20:57 10° W 16:24:11 59° SSW 16:27:25 10° ESE daylight
17 Aug - 17:57:39 10° W 18:00:16 22° SSW 18:02:52 10° SSE daylight
18 Aug - 12:17:03 10° SSW 12:19:32 20° SSE 12:22:02 10° E daylight
18 Aug - 13:52:22 10° WSW 13:55:35 55° SSE 13:58:48 10° E daylight
18 Aug - 15:28:41 10° W 15:31:57 68° S 15:35:12 10° ESE daylight
18 Aug - 17:05:13 10° W 17:08:10 31° SSW 17:11:06 10° SE daylight
19 Aug - 11:25:46 10° S 11:27:30 14° SE 11:29:12 10° ESE daylight
19 Aug - 13:00:14 10° SW 13:03:23 43° SSE 13:06:31 10° E daylight
19 Aug - 14:36:25 10° W 14:39:41 71° S 14:42:57 10° E daylight
19 Aug - 16:12:51 10° W 16:16:00 42° SSW 16:19:06 10° SE daylight
19 Aug - 17:50:14 10° WSW 17:51:52 13° SW 17:53:30 10° S daylight
20 Aug - 12:08:13 10° SW 12:11:11 32° SSE 12:14:09 10° E daylight
20 Aug - 13:44:09 10° WSW 13:47:25 68° S 13:50:41 10° E daylight
20 Aug - 15:20:33 10° W 15:23:46 55° SSW 15:26:58 10° ESE daylight
20 Aug - 16:57:21 10° W 16:59:48 20° SSW 17:02:15 10° SSE daylight
21 Aug - 11:16:24 10° SSW 11:19:03 23° SSE 11:21:41 10° E daylight
21 Aug - 12:51:54 10° WSW 12:55:08 59° SSE 12:58:23 10° E daylight
21 Aug - 14:28:14 10° W 14:31:30 65° S 14:34:45 10° ESE daylight
21 Aug - 16:04:49 10° W 16:07:41 28° SSW 16:10:31 10° SSE daylight
22 Aug - 10:24:52 10° S 10:26:56 16° SE 10:28:59 10° ESE daylight
22 Aug - 11:59:42 10° WSW 12:02:52 47° SSE 12:06:04 10° E daylight
22 Aug - 13:35:56 10° W 13:39:12 71° S 13:42:29 10° E daylight
22 Aug - 15:12:23 10° W 15:15:29 38° SSW 15:18:33 10° SE daylight
22 Aug - 16:50:11 10° WSW 16:51:18 11° SW 16:52:23 10° SSW daylight
23 Aug - 09:34:35 10° SE 09:34:52 10° SE 09:35:10 10° SE daylight
23 Aug - 11:07:35 10° SW 11:10:38 35° SSE 11:13:41 10° E daylight
23 Aug - 12:43:37 10° W 12:46:54 70° S 12:50:10 10° E daylight
23 Aug - 14:20:01 10° W 14:23:14 50° SSW 14:26:25 10° ESE daylight
23 Aug - 15:56:59 10° WSW 15:59:13 17° SW 16:01:26 10° S daylight
24 Aug - 10:15:39 10° SSW 10:18:26 26° SSE 10:21:13 10° E daylight
24 Aug - 11:51:19 10° WSW 11:54:34 63° S 11:57:50 10° E daylight
24 Aug - 13:27:41 10° W 13:30:56 62° S 13:34:11 10° ESE daylight
24 Aug - 15:04:19 10° W 15:07:04 25° SSW 15:09:48 10° SSE daylight
25 Aug - 09:23:57 10° S 09:26:16 18° SE 09:28:35 10° E daylight
25 Aug - 10:59:03 10° WSW 11:02:16 52° SSE 11:05:29 10° E daylight
25 Aug - 12:35:20 10° W 12:38:37 69° S 12:41:53 10° E daylight
25 Aug - 14:11:49 10° W 14:14:51 34° SSW 14:17:52 10° SE daylight
26 Aug - 08:32:51 10° SSE 08:34:09 12° SE 08:35:27 10° ESE daylight
26 Aug - 10:06:52 10° SW 10:09:58 39° SSE 10:13:05 10° E daylight
26 Aug - 11:42:59 10° W 11:46:15 71° S 11:49:32 10° E daylight
26 Aug - 13:19:24 10° W 13:22:34 46° SSW 13:25:44 10° SE daylight
26 Aug - 14:56:32 10° WSW 14:58:30 15° SW 15:00:28 10° S daylight
